| time (UTC) | temp F | wind direction | speed MPH | gust MPH | rain 1hr in | rain 24hr in | rain mn in | humidity % | barometer mb |
| 20260903081549 | 83 | 218 | 0.0 | 0.0 | 0.00 | 0.00 | 0.00 | 89 | 1013.2 |
| 20260903080048 | 83 | 215 | 0.0 | 1.0 | 0.00 | 0.00 | 0.00 | 89 | 1013.2 |
| 20260903074549 | 83 | 217 | 0.0 | 1.0 | 0.00 | 0.00 | 0.00 | 89 | 1013.1 |
| 20260903073046 | 83 | 218 | 0.0 | 1.0 | 0.00 | 0.00 | 0.00 | 88 | 1013.2 |
| 20260903071555 | 83 | 216 | 0.0 | 1.0 | 0.00 | 0.00 | 0.00 | 88 | 1013.4 |
| 20260903070043 | 83 | 235 | 0.0 | 1.0 | 0.00 | 0.00 | 0.00 | 88 | 1013.4 |
| 20260903064540 | 84 | 219 | 0.0 | 1.0 | 0.00 | 0.00 | 0.00 | 88 | 1013.7 |
| 20260903063039 | 84 | 212 | 0.0 | 0.0 | 0.00 | 0.00 | 0.00 | 88 | 1013.7 |
| 20260903061537 | 84 | 94 | 0.0 | 0.0 | 0.00 | 0.00 | 0.00 | 88 | 1014.0 |
| 20260903060035 | 84 | 219 | 0.0 | 0.0 | 0.00 | 0.00 | 0.00 | 87 | 1014.2 |
| 20260903054535 | 84 | 222 | 0.0 | 0.0 | 0.00 | 0.00 | 0.00 | 87 | 1014.3 |
| 20260903053031 | 84 | 218 | 0.0 | 2.0 | 0.00 | 0.00 | 0.00 | 86 | 1014.2 |
| 20260903051546 | 84 | 72 | 0.0 | 0.0 | 0.00 | 0.00 | 0.00 | 86 | 1014.3 |
| 20260903050024 | 84 | 65 | 0.0 | 0.0 | 0.00 | 0.00 | 0.00 | 86 | 1014.2 |
| 20260903044531 | 84 | 6 | 0.0 | 0.0 | 0.00 | 0.00 | 0.00 | 86 | 1014.5 |
| 20260903043054 | 84 | 72 | 0.0 | 0.0 | 0.00 | 0.00 | 0.00 | 85 | 1014.5 |
| 20260903041523 | 85 | 77 | 0.0 | 0.0 | 0.00 | 0.00 | 0.00 | 85 | 1014.4 |
| 20260903040022 | 85 | 82 | 0.0 | 1.0 | 0.00 | 0.00 | 0.00 | 85 | 1014.6 |
| 20260903034534 | 85 | 40 | 0.0 | 0.0 | 0.00 | 0.00 | 0.00 | 85 | 1014.4 |
| 20260903033021 | 85 | 34 | 0.0 | 1.0 | 0.00 | 0.00 | 0.00 | 85 | 1014.2 |
| 20260903031520 | 85 | 214 | 0.0 | 1.0 | 0.00 | 0.00 | 0.00 | 85 | 1014.3 |
| 20260903030021 | 85 | 357 | 0.0 | 1.0 | 0.00 | 0.00 | 0.00 | 86 | 1014.1 |
| 20260903024524 | 85 | 75 | 0.0 | 2.0 | 0.00 | 0.00 | 0.00 | 86 | 1013.7 |
| 20260903023019 | 85 | 60 | 0.0 | 3.0 | 0.00 | 0.00 | 0.00 | 86 | 1013.6 |
| 20260903021518 | 85 | 63 | 0.0 | 3.0 | 0.00 | 0.00 | 0.00 | 86 | 1013.3 |
| 20260903020022 | 85 | 76 | 0.0 | 1.0 | 0.00 | 0.00 | 0.00 | 86 | 1013.3 |
| 20260903014521 | 85 | 231 | 0.0 | 5.0 | 0.00 | 0.00 | 0.00 | 86 | 1013.3 |
| 20260903013016 | 85 | 235 | 0.0 | 2.0 | 0.00 | 0.00 | 0.00 | 85 | 1013.2 |
| 20260903011518 | 86 | 236 | 0.0 | 3.0 | 0.00 | 0.00 | 0.00 | 84 | 1013.1 |
| 20260903010016 | 86 | 241 | 0.0 | 1.0 | 0.00 | 0.00 | 0.00 | 83 | 1012.7 |
| 20260903004515 | 86 | 141 | 0.0 | 4.0 | 0.00 | 0.00 | 0.00 | 82 | 1012.9 |
| 20260903003014 | 87 | 217 | 0.0 | 3.0 | 0.00 | 0.00 | 0.00 | 80 | 1012.9 |
| 20260903001516 | 87 | 162 | 0.0 | 4.0 | 0.00 | 0.00 | 0.00 | 79 | 1012.2 |
| 20260903000014 | 88 | 225 | 0.0 | 4.0 | 0.00 | 0.00 | 0.00 | 77 | 1012.1 |
| 20260902234520 | 89 | 160 | 1.0 | 6.0 | 0.00 | 0.00 | 0.00 | 75 | 1012.2 |
| 20260902233012 | 90 | 79 | 1.0 | 5.0 | 0.00 | 0.00 | 0.00 | 73 | 1012.4 |
| 20260902231511 | 91 | 165 | 0.0 | 4.0 | 0.00 | 0.00 | 0.00 | 72 | 1012.2 |
| 20260902230010 | 93 | 223 | 0.0 | 9.0 | 0.00 | 0.00 | 0.00 | 71 | 1012.1 |
| 20260902224510 | 93 | 189 | 0.0 | 7.0 | 0.00 | 0.00 | 0.00 | 67 | 1012.0 |
| 20260902223021 | 93 | 224 | 0.0 | 7.0 | 0.00 | 0.00 | 0.00 | 66 | 1012.0 |
| 20260902221507 | 94 | 259 | 0.0 | 3.0 | 0.00 | 0.00 | 0.00 | 66 | 1012.1 |
| 20260902220005 | 93 | 70 | 1.0 | 8.0 | 0.00 | 0.00 | 0.00 | 68 | 1012.0 |
| 20260902214503 | 92 | 66 | 0.0 | 4.0 | 0.00 | 0.01 | 0.00 | 70 | 1012.1 |
| 20260902213002 | 92 | 57 | 0.0 | 3.0 | 0.00 | 0.01 | 0.00 | 71 | 1012.2 |
| 20260902211604 | 93 | 65 | 0.0 | 5.0 | 0.00 | 0.01 | 0.00 | 70 | 1012.3 |
| 20260902210059 | 94 | 230 | 0.0 | 5.0 | 0.00 | 0.01 | 0.00 | 62 | 1012.4 |
| 20260902204557 | 95 | 199 | 0.0 | 7.0 | 0.00 | 0.01 | 0.00 | 64 | 1012.4 |
| 20260902203052 | 95 | 214 | 0.0 | 6.0 | 0.00 | 0.01 | 0.00 | 63 | 1012.6 |
| 20260902201602 | 95 | 208 | 0.0 | 4.0 | 0.00 | 0.01 | 0.00 | 63 | 1012.8 |
| 20260902200057 | 94 | 207 | 1.0 | 6.0 | 0.00 | 0.01 | 0.00 | 64 | 1013.1 |
| 20260902194541 | 94 | 258 | 2.0 | 6.0 | 0.00 | 0.01 | 0.00 | 65 | 1013.3 |
| 20260902193038 | 93 | 214 | 0.0 | 5.0 | 0.00 | 0.01 | 0.00 | 67 | 1013.4 |
| 20260902191537 | 93 | 214 | 1.0 | 6.0 | 0.00 | 0.01 | 0.00 | 66 | 1013.6 |
| 20260902190048 | 93 | 212 | 2.0 | 5.0 | 0.00 | 0.01 | 0.00 | 66 | 1013.7 |
| 20260902184532 | 93 | 210 | 1.0 | 8.0 | 0.00 | 0.01 | 0.00 | 65 | 1013.8 |
| 20260902183025 | 93 | 321 | 1.0 | 4.0 | 0.00 | 0.01 | 0.00 | 66 | 1014.0 |
| 20260902181522 | 92 | 229 | 3.0 | 8.0 | 0.00 | 0.01 | 0.00 | 69 | 1014.3 |
| 20260902180016 | 91 | 211 | 2.0 | 8.0 | 0.00 | 0.01 | 0.00 | 72 | 1014.6 |
| 20260902174512 | 90 | 265 | 1.0 | 6.0 | 0.00 | 0.01 | 0.00 | 74 | 1014.8 |
| 20260902173010 | 89 | 215 | 2.0 | 6.0 | 0.00 | 0.01 | 0.00 | 76 | 1015.0 |
| 20260902171509 | 89 | 228 | 3.0 | 7.0 | 0.00 | 0.01 | 0.00 | 77 | 1015.2 |
| 20260902170009 | 89 | 218 | 3.0 | 9.0 | 0.00 | 0.01 | 0.00 | 77 | 1015.3 |
| 20260902164510 | 88 | 231 | 1.0 | 7.0 | 0.00 | 0.01 | 0.00 | 79 | 1015.5 |
| 20260902163005 | 88 | 260 | 2.0 | 7.0 | 0.00 | 0.01 | 0.00 | 80 | 1015.7 |
| 20260902161505 | 87 | 272 | 3.0 | 8.0 | 0.00 | 0.01 | 0.00 | 82 | 1015.7 |
| 20260902160106 | 86 | 259 | 2.0 | 6.0 | 0.00 | 0.01 | 0.00 | 84 | 1015.7 |
| 20260902154556 | 86 | 240 | 2.0 | 8.0 | 0.00 | 0.01 | 0.00 | 85 | 1015.6 |
| 20260902153052 | 85 | 226 | 0.0 | 8.0 | 0.00 | 0.01 | 0.00 | 87 | 1015.5 |
| 20260902151549 | 84 | 271 | 1.0 | 5.0 | 0.00 | 0.01 | 0.00 | 88 | 1015.4 |
| 20260902150045 | 84 | 254 | 0.0 | 3.0 | 0.00 | 0.01 | 0.00 | 89 | 1015.3 |
| 20260902144543 | 83 | 259 | 0.0 | 4.0 | 0.00 | 0.01 | 0.00 | 90 | 1015.4 |
| 20260902143041 | 82 | 219 | 0.0 | 2.0 | 0.00 | 0.01 | 0.00 | 91 | 1015.2 |
| 20260902141538 | 81 | 249 | 0.0 | 1.0 | 0.00 | 0.01 | 0.00 | 90 | 1015.2 |
| 20260902140033 | 81 | 218 | 0.0 | 1.0 | 0.00 | 0.01 | 0.00 | 91 | 1015.2 |
| 20260902134530 | 81 | 224 | 0.0 | 1.0 | 0.00 | 0.01 | 0.00 | 90 | 1015.3 |
| 20260902133029 | 80 | 210 | 0.0 | 1.0 | 0.00 | 0.01 | 0.00 | 89 | 1015.3 |
| 20260902131529 | 80 | 210 | 0.0 | 2.0 | 0.00 | 0.01 | 0.00 | 89 | 1015.1 |
| 20260902130026 | 80 | 224 | 0.0 | 0.0 | 0.00 | 0.01 | 0.00 | 89 | 1014.7 |
| 20260902124525 | 80 | 211 | 0.0 | 0.0 | 0.00 | 0.01 | 0.00 | 90 | 1014.7 |
| 20260902123022 | 80 | 211 | 0.0 | 1.0 | 0.00 | 0.01 | 0.00 | 90 | 1014.4 |
| 20260902121520 | 80 | 215 | 0.0 | 2.0 | 0.00 | 0.01 | 0.00 | 92 | 1014.2 |
| 20260902120022 | 80 | 216 | 0.0 | 1.0 | 0.00 | 0.01 | 0.00 | 94 | 1014.2 |
| 20260902114525 | 80 | 206 | 0.0 | 4.0 | 0.00 | 0.01 | 0.00 | 95 | 1014.0 |
| 20260902113017 | 80 | 243 | 0.0 | 2.0 | 0.00 | 0.01 | 0.00 | 94 | 1014.0 |
| 20260902111516 | 80 | 252 | 0.0 | 1.0 | 0.00 | 0.01 | 0.00 | 94 | 1013.8 |
| 20260902110018 | 80 | 224 | 0.0 | 0.0 | 0.00 | 0.01 | 0.00 | 94 | 1013.8 |
| 20260902104523 | 80 | 259 | 0.0 | 1.0 | 0.00 | 0.01 | 0.00 | 94 | 1013.9 |
| 20260902103013 | 80 | 250 | 0.0 | 1.0 | 0.00 | 0.01 | 0.00 | 93 | 1014.0 |
| 20260902101512 | 80 | 251 | 0.0 | 2.0 | 0.00 | 0.01 | 0.00 | 93 | 1013.8 |
| 20260902100011 | 80 | 262 | 0.0 | 1.0 | 0.00 | 0.01 | 0.00 | 93 | 1013.6 |
| 20260902094517 | 80 | 272 | 0.0 | 4.0 | 0.00 | 0.01 | 0.00 | 93 | 1013.5 |
| 20260902093009 | 80 | 210 | 0.0 | 1.0 | 0.00 | 0.01 | 0.00 | 93 | 1013.6 |
| 20260902091509 | 80 | 213 | 0.0 | 2.0 | 0.00 | 0.01 | 0.00 | 93 | 1013.5 |
| 20260902090009 | 80 | 205 | 0.0 | 2.0 | 0.00 | 0.01 | 0.00 | 93 | 1013.3 |
| 20260902084508 | 80 | 263 | 0.0 | 3.0 | 0.00 | 0.01 | 0.00 | 92 | 1013.5 |
| 20260902083010 | 80 | 266 | 0.0 | 2.0 | 0.00 | 0.01 | 0.00 | 92 | 1013.4 |